Location: Caltech
(34.1382°N, 118.1253°W)
Time: 21:37:18
(UTC-07:00)

Tiros 1 despin weight - Visible Passes

Search period start: 26 August 2016 00:00
Search period end: 05 September 2016 00:00
Orbit: 596 x 645 km, 48.2° (Epoch: 26 August)

Date Brightness Start Highest point End Pass type
(mag) Time Alt. Az. Time Alt. Az. Time Alt. Az.
26 Aug ? 19:50:58 10° NW 19:55:37 79° SW 20:00:10 10° SE visible
26 Aug ? 21:35:31 10° WSW 21:36:35 11° SW 21:37:39 10° SW visible
27 Aug ? 20:08:27 10° WNW 20:12:43 37° SW 20:16:55 10° SSE visible
28 Aug ? 20:26:40 10° W 20:29:42 17° SW 20:32:40 10° S visible
31 Aug ? 19:38:00 10° WSW 19:39:39 12° SW 19:41:18 10° SSW visible
